This is the latest recevied weather packets stored in our database for station/object K4CRS-13. If no packets are shown the sender has not sent any weather packets the latest 10 day(s).
| Time | Temp. | Humidity | Pressure | Rain* | Wind** | Luminosity | Snow |
|---|---|---|---|---|---|---|---|
| 1777498310 | 24.44° C | 75% | 1046 hPa | 0 mm | - | 183 W/m² | - |
| 1777498009 | 24.44° C | 73% | 1046.2 hPa | 0 mm | - | 244 W/m² | - |
| 1777497706 | 25° C | 73% | 1046.3 hPa | 0 mm | - | 247 W/m² | - |
| 1777497402 | 25° C | 71% | 1046.3 hPa | 0 mm | - | 248 W/m² | - |
| 1777497098 | 25° C | 71% | 1046.2 hPa | 0 mm | - | 293 W/m² | - |
| 1777496795 | 25.56° C | 71% | 1046.3 hPa | 0 mm | - | 385 W/m² | - |
| 1777496492 | 25.56° C | 71% | 1046.2 hPa | 0 mm | - | 514 W/m² | - |
| 1777496188 | 25.56° C | 73% | 1046.2 hPa | 0 mm | - | 540 W/m² | - |
| 1777495884 | 25° C | 72% | 1046.2 hPa | 0 mm | - | 351 W/m² | - |
| 1777495580 | 25.56° C | 73% | 1046.1 hPa | 0 mm | - | 458 W/m² | - |
| 1777495276 | 25.56° C | 73% | 1046.3 hPa | 0 mm | - | 430 W/m² | - |
| 1777494974 | 25° C | 74% | 1046.2 hPa | 0 mm | - | 315 W/m² | - |
| 1777494671 | 25.56° C | 73% | 1046.2 hPa | 0 mm | - | 440 W/m² | - |
| 1777494368 | 25.56° C | 72% | 1046.7 hPa | 0 mm | - | 262 W/m² | - |
| 1777494064 | 26.11° C | 72% | 1046.8 hPa | 0 mm | - | 283 W/m² | - |
| 1777493762 | 26.11° C | 71% | 1046.8 hPa | 0 mm | - | 462 W/m² | - |
| 1777493460 | 25.56° C | 73% | 1046.8 hPa | 0 mm | - | 359 W/m² | - |
| 1777493155 | 25.56° C | 72% | 1046.6 hPa | 0 mm | - | 357 W/m² | - |
| 1777492852 | 25.56° C | 73% | 1046.6 hPa | 0 mm | - | 430 W/m² | - |
| 1777492549 | 26.11° C | 72% | 1046.4 hPa | 0 mm | - | 314 W/m² | - |
| 1777492245 | 26.67° C | 74% | 1046.5 hPa | 0 mm | - | 633 W/m² | - |
| 1777491942 | 26.67° C | 71% | 1046.5 hPa | 0 mm | - | 601 W/m² | - |
| 1777491638 | 26.11° C | 70% | 1047.1 hPa | 0 mm | - | 716 W/m² | - |
| 1777491336 | 26.11° C | 70% | 1046.7 hPa | 0 mm | - | 789 W/m² | - |
| 1777491033 | 26.11° C | 73% | 1047 hPa | 0 mm | - | 748 W/m² | - |
* Rain latest hour (hover to see other rain measurements)
** Current wind speed in m/s (hover to see current wind gust speed)